Newark, NJ

9:55 PM EDT on October 14, 2019 (GMT -0400)
Newark International

Weather History for KEWR - May, 2019

Change the Weather History Date:

Friday, May 10, 2019

  Actual Average Record
Temperature  
Mean Temperature 67 °F 61 °F  
Max Temperature 79 °F 70 °F 93 °F (1979)
Min Temperature 55 °F 51 °F 34 °F (1947)
Degree Days  
Heating Degree Days 0 5  
Month to date heating degree days 48 65  
Since 1 July heating degree days 4642 4785  
Cooling Degree Days 2 1  
Month to date cooling degree days 2 10  
Year to date cooling degree days 17 22  
Growing Degree Days 17 (Base 50)    
Moisture  
Dew Point 58 °F    
Average Humidity 74    
Maximum Humidity 93    
Minimum Humidity 54    
Precipitation  
Precipitation 0.03 in 0.13 in 1.68 in (1989)
Month to date precipitation 1.97 1.24  
Year to date precipitation 17.62 16.04  
Snow  
Snow 0.00 in 0.00 in T in (1954)
Month to date snowfall 0.0 0.0  
Since 1 July snowfall 22.0 28.5  
Snow Depth 0.00 in    
Sea Level Pressure  
Sea Level Pressure 30.03 in    
Wind  
Wind Speed 9 mph (SSE)    
Max Wind Speed 23 mph    
Max Gust Speed 27 mph    
Visibility 9 miles    
Events Rain    
T = Trace of Precipitation, MM = Missing Value Source: NWS Daily Summary

Daily Weather History Graph

Daily Weather History Graph

Search for Another Location

Airport or City:

Astronomy

May. 10, 2019 Rise Set
Actual Time 5:45 AM EDT 8:01 PM EDT
Civil Twilight 5:14 AM EDT 8:32 PM EDT
Nautical Twilight 4:36 AM EDT 9:10 PM EDT
Astronomical Twilight 3:55 AM EDT 9:51 PM EDT
Moon 10:41 AM EDT (5/10) 12:53 AM EDT (5/10)
Length of Visible Light 15h 17m
Length of Day
14h 16m
Waxing Crescent, 35% of the Moon is Illuminated
May 10
Waxing Crescent
May 11
First Quarter
May 18
Full
May 26
Last Quarter
Jun 3
New

Hourly Weather History & Observations

Time (EDT) Temp. Dew Point Humidity Pressure Visibility Wind Dir Wind Speed Gust Speed Precip Events Conditions
12:51 AM 55.0 °F 48.0 °F 77% 30.21 in 10.0 mi ESE 8.1 mph - N/A   Overcast
1:51 AM 55.0 °F 48.0 °F 77% 30.20 in 10.0 mi ESE 5.8 mph - N/A   Overcast
2:17 AM 55.0 °F 48.9 °F 80% 30.18 in 10.0 mi Variable 6.9 mph - N/A   Overcast
2:51 AM 55.9 °F 48.9 °F 77% 30.16 in 10.0 mi ESE 6.9 mph - N/A   Overcast
3:51 AM 55.9 °F 50.0 °F 80% 30.15 in 10.0 mi East 3.5 mph - N/A   Overcast
4:51 AM 57.0 °F 51.1 °F 81% 30.13 in 10.0 mi East 5.8 mph - N/A   Overcast
5:51 AM 57.9 °F 55.0 °F 90% 30.11 in 10.0 mi ESE 5.8 mph - 0.00 in   Overcast
6:51 AM 59.0 °F 55.9 °F 90% 30.10 in 8.0 mi ESE 3.5 mph - N/A   Overcast
7:39 AM 59.0 °F 55.9 °F 90% 30.09 in 3.0 mi East 3.5 mph - N/A   Overcast
7:51 AM 59.0 °F 57.0 °F 93% 30.09 in 3.0 mi East 4.6 mph - N/A   Overcast
8:46 AM 60.8 °F 57.2 °F 88% 30.06 in 3.0 mi East 4.6 mph - N/A   Overcast
8:51 AM 60.1 °F 57.9 °F 93% 30.06 in 3.0 mi ENE 4.6 mph - N/A   Overcast
9:36 AM 62.1 °F 57.9 °F 86% 30.04 in 10.0 mi East 4.6 mph - N/A   Mostly Cloudy
9:51 AM 63.0 °F 57.9 °F 84% 30.04 in 10.0 mi East 5.8 mph - N/A   Mostly Cloudy
10:12 AM 64.0 °F 57.9 °F 80% 30.03 in 10.0 mi East 6.9 mph - N/A   Mostly Cloudy
10:51 AM 64.9 °F 57.9 °F 78% 30.02 in 10.0 mi ESE 10.4 mph - N/A   Overcast
11:51 AM 66.9 °F 57.9 °F 73% 30.01 in 10.0 mi ESE 6.9 mph - N/A   Overcast
12:51 PM 71.1 °F 60.1 °F 68% 29.99 in 10.0 mi SSW 13.8 mph - 0.00 in Rain Light Rain
1:07 PM 68.0 °F 62.1 °F 81% 30.00 in 2.0 mi WSW 18.4 mph 24.2 mph 0.01 in Rain Light Rain
1:19 PM 66.9 °F 63.0 °F 87% 29.99 in 6.0 mi SSW 9.2 mph - 0.03 in Rain Light Rain
1:33 PM 68.0 °F 62.1 °F 81% 29.98 in 9.0 mi SSW 13.8 mph - 0.03 in   Overcast
1:51 PM 69.1 °F 62.1 °F 78% 29.97 in 10.0 mi SSE 5.8 mph - 0.03 in   Overcast
2:51 PM 75.0 °F 64.0 °F 69% 29.95 in 10.0 mi SSW 13.8 mph - N/A   Mostly Cloudy
3:51 PM 75.9 °F 61.0 °F 60% 29.94 in 10.0 mi SSW 12.7 mph - N/A   Mostly Cloudy
4:51 PM 77.0 °F 62.1 °F 60% 29.92 in 10.0 mi SW 8.1 mph - N/A   Mostly Cloudy
5:51 PM 79.0 °F 60.1 °F 52% 29.91 in 10.0 mi SW 12.7 mph 20.7 mph N/A   Mostly Cloudy
6:51 PM 77.0 °F 59.0 °F 54% 29.91 in 10.0 mi SW 18.4 mph 23.0 mph N/A   Mostly Cloudy
7:51 PM 73.9 °F 61.0 °F 64% 29.93 in 10.0 mi SW 20.7 mph 27.6 mph N/A   Mostly Cloudy
8:51 PM 71.1 °F 63.0 °F 75% 29.93 in 10.0 mi SSW 8.1 mph - N/A   Mostly Cloudy
9:51 PM 71.1 °F 64.0 °F 78% 29.92 in 10.0 mi SSW 12.7 mph - N/A   Mostly Cloudy
10:51 PM 70.0 °F 64.0 °F 81% 29.93 in 10.0 mi WSW 10.4 mph - N/A   Mostly Cloudy
11:51 PM 69.1 °F 64.0 °F 84% 29.92 in 10.0 mi SW 9.2 mph - N/A   Mostly Cloudy